Location: *
(49.5667°N, 1.3667°W)
Time: 06:24:45
(UTC+00:00)

Meteor 2-5 Rocket - Pass Details

Date: 20 September 2019
Orbit: 834 x 911 km, 81.2° (Epoch: 16 October)

Event Time Altitude Azimuth Distance (km) Brightness Sun altitude
Rises 19:35:44 0° 349° (N) 3,485 7.3 -14.7°
Reaches altitude 10° 19:38:12 10° 353° (N) 2,554 6.6 -15.0°
Maximum altitude 19:43:59 64° 75° (ENE) 987 3.8 -15.9°
Enters shadow 19:48:51 15° 155° (SSE) 2,215 5.5 -16.6°
